Orbital Elements at Epoch 2459000.5 (2020-May-31.0) TDB
Reference: JPL 31 (heliocentric ecliptic J2000)
Element | Value | Uncertainty (1-sigma) | Units |
e | .1643642121747235 | 4.6935e-08 | |
a | 3.165662650172139 | 2.3475e-08 | au |
q | 2.645341002665647 | 1.4637e-07 | au |
i | .6153944247291365 | 6.7611e-06 | deg |
node | 348.8821845325183 | 0.0004655 | deg |
peri | 84.84197164496989 | 0.00046598 | deg |
M | 95.50654964378444 | 2.0755e-05 | deg |
tp | 2458454.709427060524 (2018-Dec-02.20942706) | 0.00011656 | TDB |
period | 2057.28933765328 5.63 | 2.2884e-05 6.265e-08 | d yr |
n | .1749875398715899 | 1.9464e-09 | deg/d |
Q | 3.68598429767863 | 2.7334e-08 | au |
|
| | Orbit Determination Parameters
Additional Information
|